Probability
0 2 4 2 0 1 2 1 0 0 0 0 0 0 0 1 1 1 0 0 0 0 0 1 1 1 1 0 0 0 0 0 0 0 0 0 0 0 0 0 0 0 0
2 5 6 4 1 1 2 1 0 0 0 0 0 0 0 0 1 1 1 0 0 0 1 2 2 2 2 1 1 1 0 0 0 0 0 0 0 0 0 0 0 0 0
5 8 9 7 3 1 1 1 0 0 1 1 1 0 0 0 0 1 1 1 0 0 1 2 3 3 3 3 2 2 1 1 0 0 0 0 0 0 0 0 0 0 0
10 10 11 11 7 3 1 1 1 1 2 2 2 1 0 0 0 0 1 2 1 0 1 2 3 3 3 3 3 3 3 2 1 0 0 0 0 0 0 0 0 0 0
14 13 13 14 12 6 3 2 2 3 3 3 3 1 1 0 0 0 1 2 2 1 1 2 3 3 3 3 3 3 3 2 1 0 0 0 0 0 0 0 0 0 0
17 15 15 17 16 10 4 2 3 4 4 3 3 3 2 1 1 1 1 2 2 1 1 2 3 3 3 3 3 3 3 1 0 0 0 0 0 0 0 0 0 1 1
16 15 16 19 19 12 5 2 4 6 6 4 3 3 2 1 1 2 3 2 1 1 1 2 3 3 3 3 3 3 2 1 0 0 0 0 0 0 0 0 0 1 2
15 14 15 18 19 14 6 3 5 8 8 6 4 3 2 1 1 2 3 3 2 1 2 2 2 3 3 3 3 3 1 0 0 0 0 0 0 0 0 0 0 1 2
16 16 15 15 16 13 7 4 5 8 9 7 5 3 1 0 0 1 3 3 3 2 2 2 2 3 4 4 3 2 1 0 0 0 0 0 0 0 0 0 0 0 1
19 18 17 17 15 10 5 3 4 6 8 7 6 3 1 0 0 1 2 3 3 3 3 3 3 4 5 4 3 1 0 0 0 0 0 0 0 0 0 0 0 0 0
17 17 17 17 15 10 5 3 2 4 6 6 6 3 1 0 0 0 1 3 3 3 3 4 5 5 4 4 2 1 0 0 0 0 0 0 0 0 0 0 0 0 0
14 13 13 14 12 10 7 4 3 3 4 6 6 3 1 0 0 0 1 2 3 3 3 3 4 4 3 2 1 0 0 0 0 0 0 0 0 0 0 0 0 0 0
13 11 10 10 10 8 8 6 3 2 3 5 6 4 2 1 0 0 1 2 2 2 2 2 2 3 3 1 0 0 0 0 0 0 0 0 0 0 0 0 0 0 0
13 11 10 10 9 8 7 7 4 2 2 5 5 4 3 2 1 0 1 2 3 2 1 1 1 2 2 1 0 0 0 0 0 0 0 0 0 0 0 0 0 0 0
12 11 10 9 8 7 6 6 5 3 2 3 5 4 3 3 1 0 1 3 3 3 2 1 1 1 1 0 0 0 0 0 0 0 0 0 0 0 0 0 0 0 0
10 10 10 9 8 7 5 4 4 4 2 2 3 4 3 3 2 1 1 2 3 3 3 1 0 0 0 0 0 0 0 0 0 0 0 0 0 0 0 0 0 0 0
10 10 9 8 7 7 6 4 4 4 3 1 1 2 3 3 3 1 0 1 3 3 3 2 0 0 0 0 0 0 0 0 0 0 0 0 0 0 0 0 0 0 0
10 9 8 7 7 7 7 6 5 4 3 1 0 1 2 3 3 2 1 1 2 3 3 1 0 0 0 0 0 0 0 0 0 0 0 0 0 0 0 0 0 0 0
11 9 7 6 7 8 7 6 6 4 3 1 0 0 1 2 3 2 1 1 2 2 2 1 0 0 0 0 0 0 0 0 0 0 0 0 0 0 0 0 0 0 0
11 10 7 5 6 7 7 6 6 5 4 1 0 0 0 1 2 2 1 0 1 1 1 0 0 0 0 0 0 0 0 0 0 0 0 0 0 0 0 0 0 0 0
11 9 6 4 4 5 6 5 5 5 4 2 1 0 0 0 1 1 1 0 0 0 0 0 0 0 0 0 0 0 0 0 0 0 0 0 0 0 0 0 0 0 0
10 7 4 2 2 3 4 3 3 3 3 2 1 0 0 0 0 0 1 0 0 0 0 0 0 0 0 0 0 0 0 0 0 0 0 0 0 0 0 0 0 0 0
6 5 3 2 1 2 2 2 2 1 1 1 0 0 0 0 0 0 0 0 0 0 0 0 0 0 0 0 0 0 0 0 0 0 0 0 0 0 0 0 0 0 0
4 4 3 3 2 1 1 2 2 1 1 1 1 0 0 0 0 0 0 0 0 0 0 0 0 0 0 0 0 0 0 0 0 0 0 0 0 0 0 0 0 0 0
3 4 4 4 2 1 0 1 1 1 1 1 2 1 1 0 0 0 0 0 0 0 0 0 0 0 0 0 0 0 0 0 0 0 0 0 0 0 0 0 0 0 0
3 4 5 4 2 1 0 0 0 0 0 1 2 2 2 1 0 0 0 0 0 0 0 0 0 0 0 0 0 0 0 0 0 0 0 0 0 0 0 0 0 0 0
Wind_Speed
2 2 5 7 8 9 9 10 10 11 11 11 12 12 12 12 12 12 13 12 13 13 13 14 14 14 14 14 14 14 14 14 15 14 14 14 14 15 14 14 12 8 14
4 4 7 7 8 9 9 9 10 11 11 11 11 11 12 12 12 12 12 12 12 13 13 13 13 13 14 14 14 14 14 14 14 14 13 12 13 14 14 13 13 9 14
4 4 7 7 8 9 9 9 9 10 10 10 10 11 11 11 11 11 12 12 12 12 12 13 12 13 13 13 13 13 13 14 14 13 11 6 8 13 14 13 13 13 13
5 5 6 7 8 9 9 9 9 10 10 10 10 10 10 11 11 11 11 11 11 11 11 12 12 12 12 12 13 13 13 13 13 11 6 5 5 12 13 13 13 13 13
4 4 6 8 8 8 9 9 9 9 10 9 9 9 10 10 10 10 10 10 10 10 11 11 11 11 11 12 12 12 13 12 12 8 5 4 4 10 12 12 12 12 12
4 4 6 8 8 8 8 9 8 9 9 9 9 8 9 9 9 10 9 9 9 9 10 10 10 11 11 11 11 12 12 12 9 5 4 4 4 10 11 11 11 11 11
4 3 5 7 8 8 8 8 8 8 8 8 8 8 8 9 8 9 9 9 8 9 9 9 9 10 10 10 11 11 11 10 6 4 4 3 4 9 10 10 10 11 10
5 4 4 6 7 7 7 7 7 7 7 8 8 8 8 8 8 8 8 8 8 8 8 8 8 9 9 10 10 10 10 8 6 4 3 3 6 8 9 9 9 10 10
4 4 3 3 4 5 5 5 6 6 6 6 7 7 7 7 7 7 7 7 7 7 7 7 8 8 9 9 9 9 9 8 4 3 3 2 5 7 8 8 8 9 9
4 3 3 3 3 3 3 4 5 5 5 5 6 6 6 6 5 5 5 5 6 6 6 6 7 8 8 8 9 9 8 6 3 3 2 2 5 6 7 7 7 7 7
3 2 3 3 2 2 2 3 3 4 4 5 5 5 5 3 3 3 3 4 5 5 5 6 7 7 8 7 8 8 6 2 2 2 1 3 5 5 6 6 6 6 6
2 2 2 2 2 2 2 2 1 1 2 2 3 3 2 2 1 2 3 4 4 4 4 5 6 6 5 3 5 5 2 3 2 1 1 3 4 4 4 5 4 4 4
3 2 1 2 1 2 1 1 1 1 1 2 3 3 2 2 1 1 2 2 2 3 2 3 3 2 2 2 2 2 2 2 1 1 1 2 2 3 3 3 3 3 3
1 1 1 1 2 1 1 1 1 1 1 1 2 3 3 2 1 1 1 1 1 1 2 2 2 3 3 3 3 3 2 1 1 1 0 1 1 2 2 2 2 3 3
1 1 1 1 1 1 1 1 1 1 1 2 2 2 3 3 2 1 1 1 1 1 2 2 2 3 3 2 2 3 2 2 1 1 0 1 1 1 2 2 2 2 2
2 2 1 1 1 1 1 1 1 1 1 2 2 2 3 2 2 2 1 2 1 1 2 2 3 3 2 2 2 2 2 1 1 1 0 0 1 1 1 0 0 1 1
1 1 1 1 1 1 1 1 1 1 1 2 2 3 3 3 3 2 2 2 2 2 2 2 3 2 2 2 2 1 2 1 1 1 1 0 0 0 0 1 1 1 1
0 0 0 0 0 1 1 1 1 1 1 1 2 2 3 3 3 3 2 2 2 2 2 3 3 2 2 1 1 1 1 1 1 1 1 0 0 0 1 1 1 2 2
1 1 0 0 0 1 1 1 1 1 1 1 2 2 3 4 4 3 2 2 3 3 2 3 2 2 2 2 1 1 0 1 1 1 1 0 0 0 0 1 2 2 2
0 0 0 1 0 0 0 0 0 0 0 1 1 2 3 3 4 4 2 2 3 3 2 2 3 2 2 2 1 1 1 0 1 1 1 1 0 0 0 0 1 2 3
1 1 0 0 1 0 1 1 1 1 1 1 1 2 3 3 4 4 3 3 3 3 3 4 3 3 2 2 2 1 2 1 1 1 1 1 1 0 0 0 0 0 1
1 1 1 1 1 1 1 1 1 1 1 2 2 2 3 4 4 4 4 4 4 4 4 3 3 2 1 2 2 1 1 2 2 1 1 1 1 0 0 1 1 0 0
2 1 2 2 2 2 1 0 1 1 1 1 1 2 2 3 4 4 5 4 5 5 5 5 5 5 3 2 2 3 3 3 2 2 1 1 1 1 1 1 1 1 1
3 3 2 2 2 2 1 1 1 1 2 3 2 2 3 3 4 4 5 5 5 5 5 6 5 3 5 4 2 1 1 2 2 2 2 1 2 2 3 2 2 2 1
3 3 2 2 2 2 2 2 2 2 2 2 2 2 3 3 4 5 5 5 5 5 6 6 5 4 4 4 3 2 1 1 1 2 3 2 2 2 3 3 2 2 2
3 3 3 2 3 3 2 2 3 3 3 2 3 3 3 2 3 4 5 5 6 5 6 6 6 6 5 5 4 3 3 3 3 3 3 3 2 3 2 2 2 2 2
Wind_Direction
184 183 154 130 128 124 121 120 117 114 112 109 109 107 104 102 101 103 101 96 91 90 91 90 90 89 89 88 88 87 86 85 82 80 80 82 83 82 79 75 71 65 73
161 171 149 134 131 125 120 119 119 117 115 112 111 109 107 103 100 100 100 97 94 93 93 92 90 90 90 90 90 89 88 86 83 78 74 74 79 81 80 79 78 77 76
143 155 146 134 129 126 120 114 118 119 118 116 113 111 109 106 104 101 99 98 96 94 94 94 92 91 91 90 91 90 89 87 84 79 72 61 73 80 80 79 79 79 78
143 144 141 129 128 127 123 118 116 116 117 117 116 115 114 110 107 103 99 99 98 95 95 95 94 92 92 91 92 91 90 87 85 77 62 56 68 82 82 80 78 77 77
130 133 138 129 129 129 125 121 117 120 118 116 117 119 118 115 111 105 102 99 99 99 99 97 96 95 95 95 95 93 90 88 82 70 62 58 64 83 82 81 80 78 76
114 122 138 132 132 132 129 125 122 123 123 121 118 119 120 117 115 110 107 104 102 104 102 100 102 100 99 99 99 97 94 88 76 65 62 59 66 85 84 83 82 80 76
112 113 138 136 135 133 132 131 128 125 128 129 126 120 119 119 117 113 110 109 107 106 106 105 105 105 105 105 102 100 96 90 77 68 62 60 77 86 86 85 84 81 77
116 108 120 138 136 133 135 137 133 131 130 135 131 126 120 120 119 118 116 113 112 110 111 112 108 110 108 108 105 103 99 90 82 72 63 64 85 87 88 86 82 80 77
109 105 106 118 130 134 132 136 136 135 133 133 132 125 119 116 121 121 121 120 115 116 113 115 112 112 110 111 107 103 97 86 76 68 65 63 90 92 90 88 83 79 77
89 93 97 96 100 115 134 134 139 143 139 130 125 121 115 114 120 118 119 122 121 119 118 117 117 116 111 110 107 102 94 83 73 60 50 76 92 96 93 88 85 81 76
76 66 78 77 86 92 114 124 127 145 140 128 121 116 113 105 109 117 121 122 124 123 125 121 119 117 110 108 106 99 88 84 84 66 59 88 94 94 93 92 89 85 79
133 97 72 74 83 91 95 97 105 118 127 123 124 122 115 108 108 119 123 121 120 121 125 122 116 116 106 106 106 97 91 98 88 72 66 89 102 98 92 91 91 86 82
166 142 117 103 98 97 87 101 97 108 115 116 123 123 119 112 109 111 119 111 103 101 99 101 99 105 113 118 114 110 112 107 105 84 71 80 96 100 95 85 79 80 81
168 168 153 142 118 107 107 116 124 135 143 139 135 133 132 129 129 135 137 134 122 116 118 111 113 117 119 121 126 127 122 122 130 114 126 98 93 110 103 86 71 66 76
176 196 226 176 152 143 130 147 125 143 169 161 150 149 144 150 158 155 157 148 145 139 143 140 131 130 127 126 132 136 135 140 140 137 132 99 105 113 115 94 63 57 58
208 214 224 205 203 181 162 159 175 168 172 168 163 165 156 152 158 163 174 166 166 161 154 151 148 141 137 136 139 143 145 150 144 145 135 72 85 98 148 166 357 2 21
226 231 227 216 209 195 201 190 175 181 181 187 182 169 166 165 166 168 182 189 183 169 150 134 126 121 127 132 135 151 145 152 154 150 130 92 37 31 35 286 302 310 336
185 245 266 272 237 216 221 209 201 194 196 197 194 180 181 179 175 173 178 206 180 164 156 151 142 130 132 132 137 157 142 153 158 174 143 129 70 358 337 335 314 307 316
207 210 293 348 213 240 246 210 205 204 209 212 199 193 194 188 181 179 184 193 167 161 162 163 148 146 151 144 140 97 111 171 211 180 176 224 217 199 309 343 348 331 318
196 164 232 311 264 231 239 259 211 199 236 247 230 208 198 194 184 178 178 185 162 156 162 161 152 142 147 143 116 65 353 309 257 216 219 230 237 234 148 21 1 340 346
44 43 336 278 283 184 199 221 233 243 242 238 243 233 206 200 188 181 180 183 173 172 175 162 152 143 144 127 105 37 349 342 275 249 234 224 228 233 172 213 240 358 332
13 356 339 312 271 239 234 229 235 248 242 239 237 235 220 207 197 189 181 192 185 174 166 168 149 145 156 156 139 122 314 322 304 279 252 226 231 224 247 252 228 232 276
353 329 323 310 300 283 281 19 19 4 336 293 276 263 243 216 205 197 192 195 193 185 183 182 175 168 175 196 173 161 174 222 283 294 268 245 232 230 248 242 227 236 237
318 317 306 297 294 289 258 209 197 243 256 254 254 259 262 233 214 203 197 200 198 192 190 193 190 184 170 184 199 212 203 170 176 273 301 285 270 252 245 240 233 236 229
321 317 309 311 302 298 271 235 227 252 263 277 275 258 256 245 224 210 202 202 204 198 198 197 194 192 189 188 183 171 186 189 176 191 254 275 285 263 251 239 228 227 229
334 334 330 315 308 308 299 265 240 245 254 265 269 259 255 251 233 219 211 208 207 202 202 203 198 196 199 196 190 182 180 185 194 196 221 244 257 271 267 251 232 223 222